Location: *
(52.2090°N, 4.1550°W)
Time: 03:35:41
(UTC+00:00)

Gbstr 26 Del rocket - Pass Details

Date: 19 July 2019
Orbit: 493 x 1264 km, 51.8° (Epoch: 21 August)

Event Time Altitude Azimuth Distance (km) Brightness Sun altitude
Rises 23:22:40 0° 274° (W) 2,628 6.5 -15.9°
Reaches altitude 10° 23:24:53 10° 274° (W) 1,707 5.5 -15.9°
Maximum altitude 23:28:38 82° 189° (S) 505 2.5 -16.1°
Drops below altitude 10° 23:32:28 10° 100° (E) 1,733 5.1 -16.2°
Enters shadow 23:33:20 - 100° (E) 2,091 5.6 -16.2°
